Location: Austin
(30.3000°N, 97.7500°W)
Time: 00:28:43
(UTC-06:00)

YAOGAN 1 - Pass Details

Date: 04 November 2025
Orbit: 605 x 607 km, 97.8° (Epoch: 15 November)

Event Time Altitude Azimuth Distance (km) Brightness Sun altitude
Rises 18:49:41 0° 156° (SSE) 2,848 5.8 -15.3°
Reaches altitude 10° 18:51:53 10° 151° (SSE) 1,948 4.9 -15.7°
Maximum altitude 18:55:59 50° 75° (ENE) 772 2.6 -16.6°
Drops below altitude 10° 19:00:06 10° 0° (N) 1,958 5.0 -17.5°
Sets 19:02:19 0° 355° (N) 2,864 5.9 -18.0°
